Showing default

HUBBLE 7, 64592

Orbit data source: Space-Track

HUBBLE 7, 64592 is an American payload satellite in SSO that was launched on Mon, 23 Jun 2025 UTC via an FALCON 9 launch vehicle from the Air Force Western Test Range (AFWTR). Payload-class satellites include a variety of spacecraft equipped with specific instruments for various scientific and technological missions. These include communications satellites like Starlink; space stations such as the ISS; scientific satellites like the Hubble; Earth observation satellites from companies like Planet Labs, Umbra, and HawkEye 360; GPS; miniature CubeSats for education and research; and military/defense satellites.

Loading next visibility...
Identifier
64592, 2025-135BS
Orbit
SSO
Country
Flag of USUS
Related business
Manufacturer
Endurosat
Mission
Operational Commercial Communications
Bus & Motor
CUBESAT 16U, Unknown motor
Mass
22 kg wet, 22 kg dry
Launch date (UTC)
2025-06-23 (10 months ago)
Launch vehicle
FALCON 9
Launch site
Air Force Western Test Range (AFWTR)
Object type
Payload
Rocket body
Debris
Shape & HBR
Box + 4 Pan, 1.0 m
Radar Cross Section
0.326 m², Medium (>0.1 m² and < 1m²)

Expand to show TLE details & history
Last TLE update: 16 hours ago

TLE from 16 hours ago
0 HUBBLE 7
1 64592U 25135BS  26119.85617487  .00004601  00000-0  44043-3 0  9996
2 64592  97.7677 235.0767 0004544 151.2826 208.8645 14.93670351 46690
Epoch: 2026-04-29T20:32Z
TLE epoch observation values (Epoch: 2026-04-29T20:32:53.508Z)
Latitude
-0.00001°
Longitude
69.04262°
Altitude
592.319 km
Speed
7.562 km/s
True Right ascension
15h 40m 18s
True Declination
0° 00' 00"
Sunlit
Object was in full shadow at epoch
Visualization orbit readout
Latitude
Unknown
Longitude
Unknown
Altitude
Unknown
Speed
Unknown
Apparent Right ascension
Unknown
Apparent Declination
Unknown
Sunlit
N/A
Visualization observer readout
Local Sidereal Time
19:56:36
Azimuth
Unknown
Elevation
Unknown
Doppler factor
Unknown
Orbital elements
Apogee altitude
586.683 km
Perigee altitude
580.356 km
Semi-major axis
6,961.657 km
Eccentricity
0.00045
Inclination
97.7677°
RAAN
235.0767°
Arg. of periapsis
151.2826°
True anomaly
208.83938°
Mean anomaly
208.8645°
Eccentric anomaly
208.85194°
Mean motion
3.73658 °/min
Orbital period
96.34 mins
BSTAR
0.00044043
Loading maneuver chart data...
Computing Atmospheric mass density...
Loading historical data...
Loading historical data...
Loading historical data...
Loading historical data...
Loading historical data...
Loading historical data...
Loading historical data...

Documentation

Showing up to 5 results
|